When you browse on this site, cookies collect data to enhance your experience and personalize the content and advertising you see.
Visit our Privacy Policy to learn more. By continuing to use the site, you agree to this use of cookies and data.

Hourly Weather Lusaka

Today, 4 August, Tuesday

Time Temperature Precipitation Wind Pressure Humidity
00:00 +13°C° 0 mm 3 mps 660 mmHg 74%
01:00 +12°C° 0 mm 3 mps 659 mmHg 75%
02:00 +12°C° 0 mm 3 mps 659 mmHg 79%
03:00 +12°C° 0 mm 3 mps 659 mmHg 82%
04:00 +12°C° 0 mm 3 mps 659 mmHg 85%
05:00 +11°C° 0 mm 3 mps 659 mmHg 88%
06:00 +12°C° 0 mm 3 mps 660 mmHg 84%
07:00 +13°C° 0 mm 3 mps 660 mmHg 80%
08:00 +16°C° 0 mm 2 mps 661 mmHg 74%
09:00 +18°C° 0 mm 2 mps 662 mmHg 64%
10:00 +21°C° 0 mm 2 mps 662 mmHg 54%
11:00 +24°C° 0 mm 2 mps 662 mmHg 45%
12:00 +25°C° 0 mm 2 mps 662 mmHg 41%
13:00 +25°C° 0 mm 1 mps 661 mmHg 38%
14:00 +25°C° 0 mm 1 mps 660 mmHg 34%
15:00 +25°C° 0 mm 1 mps 659 mmHg 35%
16:00 +25°C° 0 mm 1 mps 659 mmHg 36%
17:00 +24°C° 0 mm 1 mps 659 mmHg 37%
18:00 +22°C° 0 mm 1 mps 659 mmHg 44%
19:00 +19°C° 0 mm 2 mps 658 mmHg 51%
20:00 +18°C° 0 mm 3 mps 658 mmHg 58%
21:00 +17°C° 0 mm 3 mps 658 mmHg 61%
22:00 +16°C° 0 mm 3 mps 658 mmHg 63%
23:00 +16°C° 0 mm 2 mps 658 mmHg 66%

Tomorrow, 5 August, Wednesday

Time Temperature Precipitation Wind Pressure Humidity
00:00 +15°C° 0 mm 2 mps 658 mmHg 66%
01:00 +15°C° 0 mm 2 mps 658 mmHg 67%
02:00 +15°C° 0 mm 2 mps 658 mmHg 67%
03:00 +15°C° 0 mm 2 mps 658 mmHg 69%
04:00 +14°C° 0 mm 2 mps 658 mmHg 70%
05:00 +14°C° 0 mm 2 mps 657 mmHg 72%
06:00 +15°C° 0 mm 2 mps 658 mmHg 65%
07:00 +17°C° 0 mm 2 mps 659 mmHg 59%
08:00 +19°C° 0 mm 2 mps 660 mmHg 52%
09:00 +23°C° 0 mm 2 mps 661 mmHg 44%
10:00 +25°C° 0 mm 2 mps 662 mmHg 35%
11:00 +28°C° 0 mm 2 mps 662 mmHg 27%
12:00 +29°C° 0 mm 2 mps 662 mmHg 25%
13:00 +29°C° 0 mm 2 mps 661 mmHg 23%
14:00 +30°C° 0 mm 1 mps 660 mmHg 22%
15:00 +29°C° 0 mm 2 mps 660 mmHg 22%
16:00 +29°C° 0 mm 2 mps 659 mmHg 23%
17:00 +28°C° 0 mm 2 mps 659 mmHg 23%
18:00 +25°C° 0 mm 2 mps 659 mmHg 30%
19:00 +23°C° 0 mm 2 mps 658 mmHg 36%
20:00 +19°C° 0 mm 2 mps 658 mmHg 43%
21:00 +19°C° 0 mm 2 mps 658 mmHg 43%
22:00 +18°C° 0 mm 2 mps 658 mmHg 43%
23:00 +17°C° 0 mm 2 mps 658 mmHg 44%

Day after tomorrow, 6 August, Thursday

Time Temperature Precipitation Wind Pressure Humidity
00:00 +17°C° 0 mm 2 mps 658 mmHg 47%
01:00 +16°C° 0 mm 2 mps 658 mmHg 50%
02:00 +15°C° 0 mm 1 mps 657 mmHg 53%
03:00 +15°C° 0 mm 1 mps 657 mmHg 54%
04:00 +15°C° 0 mm 1 mps 657 mmHg 55%
05:00 +15°C° 0 mm 1 mps 657 mmHg 56%
06:00 +16°C° 0 mm 1 mps 658 mmHg 51%
07:00 +18°C° 0 mm 2 mps 659 mmHg 46%
08:00 +20°C° 0 mm 2 mps 660 mmHg 40%
09:00 +23°C° 0 mm 2 mps 660 mmHg 35%
10:00 +26°C° 0 mm 2 mps 661 mmHg 29%
11:00 +29°C° 0 mm 2 mps 662 mmHg 24%
12:00 +30°C° 0 mm 2 mps 661 mmHg 21%
13:00 +31°C° 0 mm 2 mps 661 mmHg 18%
14:00 +32°C° 0 mm 2 mps 660 mmHg 16%
15:00 +31°C° 0 mm 2 mps 660 mmHg 17%
16:00 +30°C° 0 mm 3 mps 659 mmHg 19%
17:00 +29°C° 0 mm 3 mps 659 mmHg 20%
18:00 +26°C° 0 mm 3 mps 658 mmHg 25%
19:00 +22°C° 0 mm 3 mps 658 mmHg 29%
20:00 +20°C° 0 mm 2 mps 658 mmHg 34%
21:00 +19°C° 0 mm 2 mps 658 mmHg 36%
22:00 +18°C° 0 mm 2 mps 658 mmHg 38%
23:00 +18°C° 0 mm 2 mps 658 mmHg 40%

7 August, Friday

Time Temperature Precipitation Wind Pressure Humidity
00:00 +17°C° 0 mm 2 mps 658 mmHg 43%
01:00 +17°C° 0 mm 2 mps 658 mmHg 46%
02:00 +17°C° 0 mm 2 mps 658 mmHg 49%
03:00 +16°C° 0 mm 2 mps 658 mmHg 51%
04:00 +16°C° 0 mm 2 mps 658 mmHg 52%
05:00 +16°C° 0 mm 2 mps 658 mmHg 54%
06:00 +17°C° 0 mm 3 mps 659 mmHg 51%
07:00 +18°C° 0 mm 3 mps 660 mmHg 49%
08:00 +19°C° 0 mm 4 mps 661 mmHg 46%
09:00 +22°C° 0 mm 4 mps 662 mmHg 38%
10:00 +26°C° 0 mm 4 mps 662 mmHg 31%
11:00 +29°C° 0 mm 4 mps 663 mmHg 23%
12:00 +29°C° 0 mm 4 mps 663 mmHg 22%
13:00 +30°C° 0 mm 4 mps 662 mmHg 20%
14:00 +32°C° 0 mm 5 mps 661 mmHg 19%
15:00 +30°C° 0 mm 5 mps 661 mmHg 20%
16:00 +29°C° 0 mm 5 mps 661 mmHg 22%
17:00 +28°C° 0 mm 5 mps 660 mmHg 24%
18:00 +26°C° 0 mm 5 mps 660 mmHg 27%
19:00 +23°C° 0 mm 5 mps 660 mmHg 31%
20:00 +21°C° 0 mm 4 mps 660 mmHg 34%
21:00 +20°C° 0 mm 5 mps 661 mmHg 38%
22:00 +19°C° 0 mm 5 mps 661 mmHg 42%
23:00 +17°C° 0 mm 5 mps 661 mmHg 46%

8 August, Saturday

Time Temperature Precipitation Wind Pressure Humidity
00:00 +16°C° 0 mm 5 mps 661 mmHg 52%
01:00 +15°C° 0 mm 5 mps 661 mmHg 58%
02:00 +14°C° 0 mm 5 mps 660 mmHg 64%
03:00 +13°C° 0 mm 5 mps 660 mmHg 69%
04:00 +13°C° 0 mm 5 mps 660 mmHg 73%
05:00 +12°C° 0 mm 5 mps 660 mmHg 78%
06:00 +13°C° 0 mm 6 mps 661 mmHg 76%
07:00 +13°C° 0 mm 6 mps 662 mmHg 75%
08:00 +13°C° 0 mm 6 mps 662 mmHg 74%
09:00 +15°C° 0 mm 6 mps 663 mmHg 66%
10:00 +17°C° 0 mm 6 mps 663 mmHg 58%
11:00 +20°C° 0 mm 5 mps 663 mmHg 50%
12:00 +21°C° 0 mm 5 mps 663 mmHg 44%
13:00 +23°C° 0 mm 4 mps 662 mmHg 38%
14:00 +25°C° 0 mm 4 mps 661 mmHg 32%
15:00 +25°C° 0 mm 4 mps 661 mmHg 33%
16:00 +25°C° 0 mm 4 mps 661 mmHg 33%
17:00 +23°C° 0 mm 4 mps 660 mmHg 34%
18:00 +21°C° 0 mm 3 mps 660 mmHg 42%
19:00 +18°C° 0 mm 3 mps 660 mmHg 49%
20:00 +16°C° 0 mm 2 mps 660 mmHg 57%
21:00 +15°C° 0 mm 2 mps 659 mmHg 59%
22:00 +14°C° 0 mm 2 mps 659 mmHg 61%
23:00 +13°C° 0 mm 2 mps 659 mmHg 64%

9 August, Sunday

Time Temperature Precipitation Wind Pressure Humidity
00:00 +13°C° 0 mm 2 mps 659 mmHg 65%
01:00 +13°C° 0 mm 2 mps 659 mmHg 67%
02:00 +12°C° 0 mm 2 mps 658 mmHg 68%
03:00 +12°C° 0 mm 2 mps 658 mmHg 71%
04:00 +10°C° 0 mm 2 mps 658 mmHg 74%
05:00 +10°C° 0 mm 3 mps 658 mmHg 76%
06:00 +11°C° 0 mm 3 mps 659 mmHg 72%
07:00 +12°C° 0 mm 3 mps 659 mmHg 68%
08:00 +13°C° 0 mm 3 mps 660 mmHg 63%
09:00 +18°C° 0 mm 3 mps 660 mmHg 51%
10:00 +21°C° 0 mm 2 mps 661 mmHg 40%
11:00 +26°C° 0 mm 2 mps 662 mmHg 28%
12:00 +27°C° 0 mm 2 mps 661 mmHg 25%
13:00 +28°C° 0 mm 2 mps 660 mmHg 21%
14:00 +29°C° 0 mm 2 mps 659 mmHg 18%
15:00 +28°C° 0 mm 3 mps 659 mmHg 18%
16:00 +27°C° 0 mm 3 mps 658 mmHg 19%
17:00 +26°C° 0 mm 3 mps 658 mmHg 19%
18:00 +22°C° 0 mm 3 mps 658 mmHg 24%
19:00 +20°C° 0 mm 3 mps 657 mmHg 29%
20:00 +17°C° 0 mm 2 mps 657 mmHg 34%
21:00 +16°C° 0 mm 2 mps 657 mmHg 37%
22:00 +15°C° 0 mm 2 mps 657 mmHg 39%
23:00 +15°C° 0 mm 1 mps 657 mmHg 41%
Show more